ATLAS 5 CENTAUR DEB, 44650

Orbit data source: Space-Track

ATLAS 5 CENTAUR DEB, 44650 is space debris in HEO originally from a launch on Wed, 17 Oct 2018 UTC launched from the Air Force Eastern Test Range (AFETR). Debris objects in space refer to the collection of defunct objects orbiting the Earth. Examples of debris include non-operational satellites, rocket bodies, and fragments generated from explosions, collisions, or faulty payload assembly.

Loading next visibility...
Identifier
44650, 2018-079L
Orbit
HEO
Country
Flag of USUS
Related business
Flag of USUnited Launch Alliance/Lockheed Martin (US)
Manufacturer
ULA Decatur
Mission
Spacecraft
Bus & Motor
Unknown
Mass
Unknown
Launch date (UTC)
2018-10-17 (7 years ago)
Launch vehicle
Unknown
Launch site
Air Force Eastern Test Range (AFETR)
Object type
Payload
Rocket body
Debris
Shape & HBR
Unknown shape, 1.1 m
Radar Cross Section
RCS unknown

Expand to show TLE details & history
Last TLE update: 1 day ago

TLE from 1 day ago
0 ATLAS 5 CENTAUR DEB
1 44650U 18079L   25288.48117345 -.00000146  00000-0  00000+0 0  9993
2 44650  12.7818  53.1785 4429092 289.6146  28.7515  1.90424004 45497
Epoch: 2025-10-15T11:32Z
TLE epoch observation values (Epoch: 2025-10-15T11:32:53.386Z)
Latitude
-0.00007°
Longitude
-144.30396°
Altitude
12,840.713 km
Speed
5.195 km/s
True Right ascension
03h 32m 41s
True Declination
0° 00' 00"
Sunlit
Object was in daylight at epoch
Visualization orbit readout
Latitude
Unknown
Longitude
Unknown
Altitude
Unknown
Speed
Unknown
Apparent Right ascension
Unknown
Apparent Declination
Unknown
Sunlit
N/A
Visualization observer readout
Local Sidereal Time
11:11:57
Azimuth
Unknown
Elevation
Unknown
Doppler factor
Unknown
Orbital elements
Apogee altitude
33,297.677 km
Perigee altitude
8,940.243 km
Semi-major axis
27,497.097 km
Eccentricity
0.44291
Inclination
12.7818°
RAAN
53.1785°
Arg. of periapsis
289.6146°
True anomaly
70.53697°
Mean anomaly
28.7515°
Eccentric anomaly
47.44471°
Mean motion
0.47601 °/min
Orbital period
756.29 mins
BSTAR
0
Loading maneuver chart data...
Computing Atmospheric mass density...

Documentation

Showing up to 5 results
|